TimeMDT,TemperatureF,Dew PointF,Humidity,Sea Level PressureIn,VisibilityMPH,Wind Direction,Wind SpeedMPH,Gust SpeedMPH,PrecipitationIn,Events,Conditions,WindDirDegrees,DateUTC
12:38 AM,46.4,42.8,87,29.87,10.0,North,16.1,-,N/A,,Overcast,350,2013-05-21 06:38:00
12:53 AM,45.0,43.0,93,29.85,8.0,North,17.3,25.3,0.00,,Overcast,350,2013-05-21 06:53:00
1:49 AM,44.6,42.8,93,29.88,9.0,NNW,15.0,-,0.04,Rain,Light Rain,330,2013-05-21 07:49:00
1:53 AM,45.0,43.0,93,29.85,10.0,NNW,15.0,-,0.04,Rain,Light Rain,330,2013-05-21 07:53:00
2:36 AM,44.6,42.8,93,29.89,9.0,NNW,13.8,-,0.01,Rain,Light Rain,340,2013-05-21 08:36:00
2:53 AM,45.0,42.1,90,29.86,10.0,NNW,11.5,-,0.02,,Mostly Cloudy,330,2013-05-21 08:53:00
3:02 AM,44.6,42.8,93,29.89,10.0,NW,11.5,-,N/A,,Scattered Clouds,320,2013-05-21 09:02:00
3:53 AM,44.1,39.9,85,29.86,10.0,NW,12.7,-,N/A,,Clear,320,2013-05-21 09:53:00
4:53 AM,44.1,39.9,85,29.85,10.0,NW,13.8,-,N/A,,Clear,310,2013-05-21 10:53:00
5:53 AM,45.0,39.9,82,29.84,10.0,NW,19.6,28.8,N/A,,Clear,310,2013-05-21 11:53:00
6:53 AM,46.9,41.0,80,29.84,10.0,WNW,23.0,31.1,N/A,,Partly Cloudy,300,2013-05-21 12:53:00
7:53 AM,51.1,41.0,68,29.83,10.0,NW,23.0,31.1,N/A,,Clear,320,2013-05-21 13:53:00
8:53 AM,55.0,39.0,55,29.83,10.0,NNW,29.9,43.7,N/A,,Partly Cloudy,330,2013-05-21 14:53:00
9:53 AM,53.1,37.9,57,29.85,10.0,NNW,32.2,44.9,N/A,,Overcast,330,2013-05-21 15:53:00
10:53 AM,53.1,37.9,57,29.85,10.0,NNW,31.1,42.6,N/A,,Overcast,330,2013-05-21 16:53:00
11:53 AM,53.1,37.9,57,29.85,10.0,NNW,31.1,43.7,N/A,,Overcast,340,2013-05-21 17:53:00
12:53 PM,54.0,39.0,57,29.85,10.0,NNW,29.9,40.3,N/A,,Overcast,330,2013-05-21 18:53:00
1:53 PM,54.0,39.0,57,29.85,10.0,NNW,33.4,43.7,0.00,,Overcast,330,2013-05-21 19:53:00
2:53 PM,55.9,39.0,53,29.84,10.0,NNW,26.5,38.0,N/A,,Mostly Cloudy,330,2013-05-21 20:53:00
3:53 PM,54.0,43.0,66,29.86,10.0,North,19.6,25.3,N/A,,Overcast,350,2013-05-21 21:53:00
4:53 PM,55.0,43.0,64,29.86,10.0,North,21.9,27.6,N/A,,Overcast,350,2013-05-21 22:53:00
5:53 PM,55.9,43.0,62,29.84,10.0,NNW,20.7,-,N/A,,Scattered Clouds,340,2013-05-21 23:53:00
6:53 PM,53.1,43.0,69,29.87,10.0,North,12.7,-,N/A,,Overcast,10,2013-05-22 00:53:00
7:53 PM,48.9,41.0,74,29.88,10.0,North,13.8,-,N/A,,Overcast,360,2013-05-22 01:53:00
8:53 PM,46.9,41.0,80,29.91,10.0,NNE,10.4,-,N/A,,Overcast,20,2013-05-22 02:53:00
9:53 PM,46.0,41.0,83,29.93,10.0,NNE,9.2,-,0.00,Rain,Light Rain,20,2013-05-22 03:53:00
10:53 PM,45.0,42.1,90,29.94,10.0,NNE,8.1,-,0.01,Rain,Light Rain,20,2013-05-22 04:53:00
11:02 PM,44.6,41.0,87,29.95,10.0,NNE,10.4,-,0.00,,Overcast,30,2013-05-22 05:02:00
11:28 PM,44.6,41.0,87,29.95,10.0,NNE,9.2,-,0.00,,Overcast,20,2013-05-22 05:28:00
11:53 PM,44.1,41.0,89,29.93,10.0,North,3.5,-,0.00,,Overcast,360,2013-05-22 05:53:00